sat.trackr.live / text

‹ back to catalog

IRIDIUM 120

NORAD 42805 · 2017-039C

PAYLOAD ACTIVE UNKNOWN

§ Identity

Operator
Country
US
Launch date
2017-06-25
Launch site
AFWTR
Launch vehicle
Mass (kg)
RCS (m²)

Purposes: comms

External: N2YO · Heavens-Above · Gunter

§ Orbital elements

Epoch: 2026-09-15T22:23:39.109920Z

Period
100.40 min
Inclination
86.3911°
Eccentricity
0.0002036
Mean motion
14.34217500 rev/d
Perigee alt
776.2 km
Apogee alt
779.1 km
Semi-major
7,155.8 km
B*
-6.7624e-6
RAAN
284.0173°
Arg perigee
90.6972°
Mean anomaly
269.4457°
Rev number
48,418

§ Raw data

IRIDIUM 1201 42805U 17039C   26258.93309155  .00000001  00000+0 -67624-5 0  99982 42805  86.3911 284.0173 0002036  90.6972 269.4457 14.34217500484187

JSON: /api/v1/satellites/42805 · /tle

For live sub-satellite position, see the globe view (requires WebGL).

§ Visibility from observer

Set your observer location to see the next 7 days of passes ≥ 10°. The values pass through the URL so the page stays shareable.

No JS? Fill the form by hand. The geolocation button needs JavaScript.